Location: Newark
(48.5156°N, 1.8989°W)
Time: 12:01:37
(UTC+00:00)

Tiros 1 - Visible Passes

Search period start: 13 November 2019 00:00
Search period end: 23 November 2019 00:00
Orbit: 630 x 664 km, 48.4° (Epoch: 12 November)

Date Brightness Start Highest point End Pass type
(mag) Time Alt. Az. Time Alt. Az. Time Alt. Az.
13 Nov 7.2 17:48:13 10° WSW 17:52:49 68° SSE 17:55:45 22° E visible
13 Nov 8.3 19:30:20 10° W 19:33:25 42° W 19:33:25 42° W visible
14 Nov 7.0 18:14:13 10° W 18:18:52 85° S 18:20:39 38° E visible
14 Nov 9.3 19:56:25 10° W 19:58:18 24° W 19:58:18 24° W visible
15 Nov 7.4 16:58:13 10° WSW 17:02:48 65° SSE 17:07:26 10° E visible
15 Nov 7.0 18:40:18 10° W 18:44:58 90° W 18:45:33 69° E visible
15 Nov 10.0 20:22:31 10° W 20:23:12 14° W 20:23:12 14° W visible
16 Nov 7.1 17:24:12 10° WSW 17:28:51 84° S 17:32:48 14° E visible
16 Nov 7.4 19:06:24 10° W 19:10:27 66° W 19:10:27 66° W visible
17 Nov 7.1 17:50:17 10° W 17:54:56 90° NW 17:57:44 24° E visible
17 Nov 8.5 19:32:30 10° W 19:35:24 36° W 19:35:24 36° W visible
18 Nov 7.1 18:16:23 10° W 18:21:03 82° S 18:22:43 40° ESE visible
18 Nov 9.5 19:58:40 10° W 20:00:23 21° W 20:00:23 21° W visible
19 Nov 7.1 17:00:16 10° W 17:04:55 90° NNW 17:09:36 10° E visible
19 Nov 7.3 18:42:28 10° W 18:47:04 62° SSW 18:47:45 54° SSE visible
19 Nov 10.2 20:25:09 10° W 20:25:25 11° W 20:25:25 11° W visible
20 Nov 7.2 17:26:22 10° W 17:31:00 83° SSW 17:35:12 13° ESE visible
20 Nov 8.1 19:08:38 10° W 19:12:52 40° SSW 19:12:52 40° SSW visible
21 Nov 7.4 17:52:27 10° W 17:57:03 64° SSW 18:00:25 18° ESE visible
21 Nov 9.2 19:35:03 10° W 19:38:06 22° SW 19:38:06 22° SW visible
22 Nov 8.1 18:18:36 10° W 18:22:58 42° SSW 18:25:46 20° SSE visible
22 Nov 10.0 20:02:35 10° WSW 20:03:28 11° SW 20:03:28 11° SW visible
